Weather in Polotsk

Belarus     55°29′08″N   28°46′06″E
temp.,
°C
wind,
m/s
gust,
m/s
humid.,
%
clouds,
%
prec.,
mm/h
press.,
hPa
HPBL,
m
17 april, sat
sat1700:00+9ne51292100 1.2 1019574
03:00+9ene41193100 2.8 1019572
06:00+8ne4119389 0.0 1019532
09:00+9ene41089100 0.0 1020715
12:00+10ene3783100 0.1 1021874
15:00+12ene4777100 0.1 10211008
18:00+12ne4877100 0.3 1021946
21:00+10ne31086100 0.3 1021567
18 april, sun
sun1800:00+10nne5138453 0.0 1020501
03:00+8ne5128956 0.0 1020441
06:00+6ne4118747 0.0 1020407
09:00+8ene597016 0.0 1021600
12:00+12ene575825 0.0 10211100
15:00+14ene574973 0.0 10211590
18:00+13ene485099 0.0 1020795
21:00+9sse2481100 0.0 1022197
19 april, mon
mon1900:00+8e1483100 0.0 1023186
03:00+7ene4118227 0.0 1023715
06:00+6ene4983100 0.0 1023695
09:00+8ene4877100 0.1 1023831
12:00+9ene4769100 0.1 10231088
15:00+9ene5869100 0.3 10231118
18:00+8ene5878100 0.1 1022941
21:00+7ene5985100 0.2 1022859
20 april, tue
tue2000:00+6ene488799 0.1 1021691
03:00+5ene4891100 0.1 1020683
06:00+5ene4893100 0.1 1018708
09:00+6ene4888100 0.1 1017797
12:00+6ene4786100 0.1 1016717
15:00+8ene5768100 0.1 10141147
18:00+8ne4873100 0.0 10111158
21:00+5nne41087100 0.1 1009936
21 april, wed
wed2100:00+4n61185100 0.1 10051065
03:00+4nnw51196100 0.8 1002784
06:00+3nnw51197100 3.6 1001738
09:00+3nw51297100 6.3 1000782
12:00+3wnw51196100 0.9 1002740
15:00+7wnw41081100 1.4 10031230
18:00+8w4970100 0.1 1005899
21:00+6wsw41179100 0.1 1007368